Wetbulb
60.25 59.18 54.47 51.69 43.81 42.67 41.36 45.75 51.64 52.10 53.13 56.58 59.47 62.26 65.22 65.68 61.93 57.05 68.24 74.47 75.01 75.17 76.95 78.12 78.09 78.12 77.89 77.41 76.87 76.72 76.51 76.62 76.37 76.37 76.62 76.89 76.97 76.87 76.60 76.83 76.91 76.76 76.06 75.88 75.63 75.15 74.58 74.29 74.15
55.37 55.44 51.97 49.02 40.79 37.02 42.39 49.88 50.23 53.37 55.32 58.12 58.63 66.10 66.37 65.09 69.37 66.62 71.18 74.80 75.04 75.37 75.82 77.44 78.06 77.74 77.64 77.08 76.59 76.38 76.54 76.64 76.44 76.22 76.59 76.95 76.87 77.00 76.58 76.48 76.61 76.30 75.45 75.28 75.29 74.97 74.51 74.00 73.92
59.75 57.29 48.43 41.84 38.12 40.01 42.58 49.71 52.64 55.68 56.79 57.55 56.28 64.14 67.47 67.00 71.69 71.77 73.57 74.77 74.65 73.97 75.78 77.63 77.91 77.48 77.43 77.03 76.52 76.44 76.44 76.39 76.42 76.37 76.60 76.65 76.73 76.95 76.58 76.18 75.96 75.86 74.79 74.42 74.25 74.35 74.07 73.87 73.60
52.06 47.79 47.43 37.09 36.00 42.11 45.97 49.33 52.64 54.03 57.31 58.22 58.17 61.68 65.37 72.62 72.68 73.98 74.52 74.90 73.34 73.61 76.19 77.78 77.60 77.43 77.30 76.93 76.57 76.39 76.62 76.54 76.47 76.32 76.55 76.63 76.75 76.70 76.47 75.91 75.61 75.77 75.42 74.72 74.59 74.61 74.68 74.40 74.27
50.08 45.43 37.49 34.29 36.88 42.03 46.17 50.24 51.76 51.32 53.27 56.56 57.01 62.09 63.89 72.84 74.16 74.44 74.07 74.78 72.84 74.75 76.37 77.00 77.52 77.45 77.15 76.88 76.75 76.54 76.62 76.44 76.34 76.50 76.52 76.67 76.57 76.66 76.51 76.13 75.56 76.01 76.05 75.42 74.81 75.25 74.83 74.66 74.83
43.98 43.90 34.38 35.90 37.59 43.40 45.96 48.41 49.24 50.59 53.09 55.37 57.22 62.76 63.51 72.99 72.77 73.90 74.38 73.58 74.35 74.43 75.65 76.50 77.58 77.21 76.72 76.90 76.67 76.54 76.36 76.31 76.27 76.34 76.39 76.58 76.38 76.51 76.49 76.22 75.68 75.71 76.08 75.88 75.88 75.66 75.10 74.90 74.85
44.07 40.58 35.81 37.45 39.24 42.29 44.82 48.79 48.23 48.53 48.99 52.10 60.29 60.52 64.05 70.60 72.41 74.16 73.66 73.52 74.20 74.07 74.48 75.29 75.33 75.71 76.26 76.71 76.28 76.10 76.05 75.95 75.95 75.85 76.04 75.99 76.05 76.03 76.01 76.09 75.95 75.33 75.15 75.70 75.63 75.15 74.95 74.60 74.45
48.00 44.97 40.30 41.68 40.50 41.27 46.62 47.56 49.97 48.88 49.68 54.69 60.60 59.65 60.55 70.20 72.58 73.38 72.74 72.96 72.47 73.04 74.03 74.16 74.53 74.60 74.59 75.75 76.25 75.90 75.88 75.75 75.49 75.82 75.76 75.52 75.80 75.75 75.78 74.92 75.09 75.22 74.83 74.63 74.55 74.58 74.33 73.90 73.63
52.23 42.69 40.87 42.09 42.37 43.33 48.25 45.42 50.50 52.17 50.91 53.87 55.69 66.97 69.86 72.44 72.50 71.52 70.85 70.72 70.56 71.71 72.28 73.50 73.99 74.06 74.27 74.91 75.64 75.85 75.96 75.82 75.84 75.73 75.58 74.62 73.17 73.65 74.59 74.49 74.94 75.00 74.70 74.45 74.20 74.00 73.73 73.46 73.43
48.11 43.25 43.65 45.93 46.63 45.97 47.44 47.04 48.70 48.95 49.81 50.13 59.72 67.87 69.82 71.97 71.10 69.68 68.94 68.38 68.35 68.91 70.17 71.90 72.79 73.26 73.95 75.02 74.16 74.15 74.56 74.38 73.90 73.75 73.37 71.77 70.11 71.28 73.11 73.29 75.02 75.12 74.90 74.57 74.12 73.98 73.78 73.88 70.39
45.54 44.91 47.93 48.41 48.97 49.21 48.42 48.80 49.78 47.75 45.37 48.78 49.59 64.83 66.99 67.34 68.35 69.62 69.47 69.02 68.25 68.96 69.51 69.90 70.92 71.56 72.60 73.46 73.24 73.32 73.33 72.85 72.36 72.33 71.81 69.73 68.93 71.09 71.03 70.84 72.62 72.22 74.32 71.71 72.36 71.59 71.13 69.65 67.91
41.20 48.14 49.81 49.94 50.44 49.90 48.36 50.29 49.51 47.84 48.19 51.63 51.61 59.96 65.80 64.99 65.94 67.66 69.73 68.94 68.57 68.58 68.85 69.11 69.62 69.17 69.27 71.92 71.26 70.87 70.98 70.63 69.76 70.46 70.20 68.48 67.44 68.95 67.52 70.82 70.22 70.62 70.28 69.83 68.83 69.22 69.05 68.31 67.53
43.89 44.95 48.23 50.86 51.12 50.66 50.52 48.95 48.43 48.07 51.00 51.81 52.30 52.35 63.22 64.30 64.48 66.03 68.67 70.34 69.78 68.77 68.47 68.60 68.65 68.46 69.56 68.70 68.51 68.99 68.53 69.11 68.52 69.66 69.44 67.95 67.97 68.59 67.18 68.26 69.67 70.06 69.30 69.19 68.50 68.32 68.54 68.42 67.89
45.03 47.34 47.03 48.46 49.58 50.62 48.99 48.25 47.68 49.55 51.72 51.74 52.46 51.04 52.08 61.84 64.95 65.02 65.94 67.63 70.05 69.33 68.46 68.80 68.55 69.19 69.73 68.14 68.97 69.53 69.79 69.59 69.22 69.91 69.73 68.59 68.17 70.58 69.01 69.10 69.49 69.58 69.54 69.59 69.52 69.37 68.30 67.73 67.72
47.02 43.54 47.43 47.92 48.53 49.03 49.79 45.75 46.69 49.71 51.98 49.56 50.60 51.08 51.44 57.18 63.19 65.19 66.09 67.20 70.89 72.15 71.60 68.52 69.13 70.55 70.34 69.97 69.19 71.25 71.10 70.97 70.70 70.59 70.22 69.37 70.52 72.17 71.58 71.74 72.09 71.70 71.63 71.97 70.68 69.40 68.26 67.31 67.11
44.47 44.04 39.58 46.64 48.60 49.76 47.16 42.20 47.64 49.17 48.30 48.22 50.49 50.80 51.45 51.85 52.19 58.36 64.71 65.53 71.10 71.21 70.77 72.19 74.11 71.30 72.83 73.27 70.92 72.39 72.00 72.27 72.83 71.83 71.80 72.36 72.40 73.16 72.40 70.89 70.92 72.30 71.36 69.76 69.12 68.49 68.25 68.14 67.93
42.19 36.92 39.71 42.89 48.92 48.67 47.69 42.75 47.58 48.79 48.06 47.61 48.48 49.57 50.42 50.22 51.65 52.70 59.13 66.15 70.83 70.25 69.91 71.31 72.07 72.35 72.46 73.86 74.43 73.50 73.70 73.41 73.58 74.25 73.25 73.93 74.05 73.65 71.94 72.01 71.62 72.16 70.68 70.34 70.11 69.31 68.95 67.82 67.93
36.91 37.82 40.67 41.06 46.06 48.07 46.24 45.46 46.58 48.46 47.79 47.99 48.66 49.06 49.44 49.74 50.31 52.25 54.24 68.78 71.48 68.85 67.24 69.89 70.97 71.71 73.03 74.70 74.25 74.00 73.62 73.73 72.77 73.65 73.67 74.31 73.11 73.36 72.23 71.66 71.82 71.28 69.98 69.27 69.25 69.36 70.47 69.42 69.26
42.96 41.08 40.42 44.01 47.28 45.91 45.30 45.13 45.86 47.58 46.83 46.98 47.34 47.70 48.09 48.98 51.35 53.29 55.00 66.25 69.02 70.86 68.64 67.43 68.13 71.70 73.43 72.57 71.79 71.18 70.43 71.69 71.62 72.96 73.98 73.61 73.44 73.55 72.23 71.45 70.47 70.63 69.76 69.46 69.79 69.48 68.07 67.29 68.34
41.08 40.47 40.57 44.94 47.93 45.96 44.07 44.03 46.01 47.51 47.25 47.58 48.43 48.17 48.48 48.88 51.08 53.67 53.40 69.05 70.26 69.83 67.41 64.12 69.46 72.17 72.52 72.85 72.39 72.21 71.12 71.79 71.09 72.48 73.39 72.54 72.81 72.42 72.15 71.00 71.01 70.98 69.64 69.18 69.30 67.98 66.79 66.74 67.04
39.19 39.39 40.57 41.60 45.66 46.87 44.37 41.65 44.75 48.00 48.46 48.37 49.79 50.06 49.75 50.16 50.07 51.67 53.23 70.58 71.82 70.51 69.24 68.00 70.00 66.95 71.58 73.18 72.65 71.88 70.32 70.30 69.82 70.28 70.87 71.88 72.77 72.36 71.77 70.58 69.84 68.43 68.68 67.96 67.40 67.04 65.60 63.67 64.36
35.90 43.83 44.71 43.88 41.93 37.07 45.17 35.46 42.41 45.67 46.30 47.40 48.22 49.15 49.81 50.41 51.49 51.54 60.96 68.80 69.34 69.65 68.78 67.68 70.47 71.01 71.90 72.03 71.25 69.71 68.36 68.05 68.57 69.94 70.51 70.05 70.55 70.51 70.13 68.66 67.57 66.26 66.92 64.82 64.53 66.17 64.08 63.38 61.27
37.08 44.32 44.04 43.72 41.79 40.59 41.86 37.16 41.61 44.63 44.13 46.45 47.54 49.01 50.27 50.38 51.24 51.53 64.81 69.24 69.47 69.47 67.43 62.44 65.66 70.48 71.53 71.23 71.02 70.43 67.98 68.88 70.46 70.41 66.95 66.43 66.37 66.99 67.13 65.99 64.23 62.35 62.87 61.45 60.34 60.46 61.85 61.81 60.48
43.43 41.25 42.76 42.57 40.98 34.40 40.75 37.94 36.17 42.36 44.65 46.54 47.63 49.22 51.05 50.60 51.10 57.64 64.33 70.54 69.00 69.75 68.14 67.88 69.47 69.23 70.30 70.02 69.75 69.06 68.67 68.68 69.41 67.22 65.73 64.90 63.10 62.92 62.17 62.33 61.74 59.64 58.95 57.38 56.72 56.44 57.36 57.91 57.02
39.41 36.69 31.70 31.33 32.04 31.67 42.29 39.57 37.86 45.43 47.44 47.80 48.01 48.77 50.22 50.79 50.42 58.82 63.79 67.88 67.52 68.44 69.13 69.46 67.53 67.38 68.57 68.73 68.98 68.91 68.07 68.27 67.89 67.11 66.01 62.19 60.72 59.40 58.65 58.69 56.92 56.01 56.21 56.33 56.40 55.19 55.62 55.25 53.74
36.57 35.81 32.15 26.69 28.47 32.40 41.45 37.48 40.76 47.12 50.02 50.00 50.32 49.40 50.42 50.14 49.64 59.70 66.63 67.51 66.88 67.42 67.39 67.29 67.44 67.80 68.27 66.02 65.84 65.85 64.03 62.74 62.41 62.79 61.57 60.20 58.81 57.67 57.54 57.04 56.20 56.17 56.39 56.17 55.45 54.97 54.85 55.41 54.64
36.52 33.71 39.36 33.85 36.55 32.97 36.73 40.60 49.28 50.07 49.39 48.69 49.05 49.41 49.06 48.85 52.51 60.78 65.49 65.39 65.71 65.12 65.12 65.40 65.58 65.03 63.22 63.25 62.30 61.85 61.64 60.61 59.30 58.04 57.73 57.97 56.91 57.35 56.09 55.89 55.33 55.45 55.51 56.04 54.03 53.83 53.43 53.39 53.70
39.29 42.17 33.30 35.96 28.23 28.38 36.23 37.88 38.62 45.13 46.88 47.98 47.79 46.76 51.40 59.24 60.91 61.96 63.25 63.65 63.52 63.51 63.14 63.05 63.62 62.83 61.75 60.86 60.20 59.01 58.52 58.20 57.48 57.24 56.06 55.37 55.25 55.23 54.51 54.20 53.99 54.07 54.44 54.62 53.75 52.88 53.47 53.48 52.47
36.29 36.49 38.93 36.75 35.51 29.11 30.91 34.91 46.85 48.10 46.68 48.88 52.63 55.97 58.30 59.12 59.78 60.39 61.13 61.70 61.64 61.96 61.87 61.10 60.46 59.73 59.19 58.93 58.50 57.51 56.94 56.81 56.43 55.53 55.06 54.71 53.48 53.37 53.34 53.76 53.49 53.44 53.95 53.54 52.74 52.12 52.59 52.55 52.41
40.66 38.47 39.91 33.41 31.83 38.01 37.81 35.36 50.37 51.49 52.40 53.37 53.95 57.35 58.71 59.05 58.79 59.44 59.67 59.86 59.85 59.52 58.97 58.35 58.81 58.20 57.52 56.97 56.59 55.85 55.79 54.94 53.63 53.26 53.31 52.90 52.52 53.04 53.49 53.96 53.99 53.32 52.15 51.09 50.54 50.56 51.18 51.09 51.29
MSLP
1009.81 1009.71 1010.04 1009.88 1010.26 1009.12 1007.53 1005.24 1003.32 1000.96 999.88 998.42 998.60 998.67 1000.32 1001.20 1003.12 1004.88 1002.89 1003.99 1005.28 1006.92 1007.11 1007.15 1007.15 1007.73 1008.26 1008.72 1009.20 1009.70 1010.12 1010.47 1010.72 1011.16 1011.69 1012.16 1012.54 1012.82 1013.04 1013.34 1013.59 1013.77 1014.02 1014.28 1014.44 1014.60 1014.72 1014.79 1014.91
1009.66 1009.69 1009.94 1009.47 1009.49 1008.92 1006.27 1004.29 1002.44 1000.11 999.44 998.36 997.48 998.39 999.16 1000.99 1001.18 1002.20 1003.68 1004.42 1005.10 1006.80 1007.09 1007.23 1007.31 1007.80 1008.36 1008.90 1009.45 1009.89 1010.35 1010.68 1011.02 1011.45 1011.88 1012.31 1012.76 1013.18 1013.50 1013.69 1013.91 1014.14 1014.32 1014.50 1014.66 1014.80 1014.95 1015.05 1015.15
1009.73 1009.70 1009.99 1009.29 1008.70 1007.64 1005.33 1003.34 1001.14 998.98 998.97 997.83 997.55 997.76 999.00 1000.30 1000.98 1002.32 1003.39 1004.53 1005.38 1006.75 1007.14 1007.21 1007.46 1007.86 1008.59 1008.98 1009.61 1010.06 1010.50 1010.92 1011.29 1011.62 1012.05 1012.43 1012.87 1013.28 1013.66 1014.02 1014.13 1014.31 1014.44 1014.70 1014.84 1014.96 1015.08 1015.18 1015.30
1009.54 1009.52 1009.31 1008.06 1007.49 1006.13 1004.49 1002.64 1000.32 999.75 998.64 997.62 997.82 998.65 999.19 999.92 1000.30 1001.76 1003.56 1004.25 1005.29 1006.64 1007.01 1007.34 1007.64 1008.15 1008.66 1009.07 1009.62 1010.09 1010.56 1011.00 1011.40 1011.76 1012.24 1012.65 1013.02 1013.36 1013.69 1014.06 1014.29 1014.42 1014.57 1014.68 1014.89 1015.00 1015.16 1015.18 1015.29
1009.42 1009.35 1009.09 1007.92 1006.73 1005.38 1003.70 1001.84 1000.14 999.85 998.90 998.61 997.95 999.46 999.70 1000.13 1000.52 1001.59 1002.91 1004.14 1005.35 1006.49 1006.94 1007.46 1007.81 1008.39 1008.86 1009.30 1009.78 1010.15 1010.56 1011.06 1011.41 1011.82 1012.27 1012.74 1013.11 1013.44 1013.76 1014.08 1014.33 1014.37 1014.55 1014.69 1014.88 1015.10 1015.16 1015.23 1015.28
1009.55 1008.62 1008.40 1007.73 1006.28 1004.54 1002.87 1001.19 999.98 999.55 998.53 997.96 998.01 999.30 1000.11 1000.46 1000.78 1001.92 1002.51 1003.55 1004.94 1006.35 1006.95 1007.38 1008.02 1008.61 1008.97 1009.31 1009.80 1010.22 1010.56 1011.08 1011.50 1011.95 1012.35 1012.82 1013.28 1013.53 1013.74 1013.96 1014.22 1014.40 1014.53 1014.70 1014.90 1015.15 1015.26 1015.25 1015.36
1008.93 1008.46 1007.56 1006.89 1005.62 1003.94 1001.98 1000.31 999.40 999.14 998.31 997.51 997.25 998.76 1000.21 1000.60 1000.71 1001.55 1002.18 1003.45 1004.85 1006.08 1007.11 1007.65 1008.16 1008.65 1009.10 1009.43 1009.69 1010.08 1010.50 1010.96 1011.41 1011.91 1012.33 1012.73 1013.18 1013.52 1013.78 1014.06 1014.26 1014.55 1014.76 1014.82 1015.03 1015.28 1015.44 1015.47 1015.54
1007.99 1008.18 1007.17 1005.70 1004.69 1002.73 1001.10 999.99 998.67 998.36 997.52 997.17 996.38 998.07 999.90 1000.46 1000.79 1001.64 1002.56 1003.92 1004.99 1006.07 1006.98 1007.95 1008.24 1008.60 1008.96 1009.46 1009.72 1010.00 1010.46 1010.93 1011.35 1011.92 1012.41 1012.81 1013.15 1013.53 1013.91 1014.22 1014.31 1014.54 1014.78 1014.93 1015.20 1015.31 1015.46 1015.55 1015.63
1007.46 1007.23 1005.34 1003.97 1003.72 1002.40 1000.40 1000.03 998.52 997.59 997.34 997.01 997.65 997.59 998.76 999.96 1000.75 1001.84 1003.25 1004.39 1005.33 1006.14 1006.64 1007.57 1008.07 1008.29 1008.66 1009.14 1009.54 1009.93 1010.30 1010.77 1011.26 1011.80 1012.28 1012.76 1013.22 1013.50 1013.85 1014.09 1014.25 1014.45 1014.72 1014.93 1015.16 1015.28 1015.43 1015.54 1015.55
1006.63 1005.51 1002.99 1003.42 1003.00 1001.95 1000.40 999.59 998.52 998.03 997.39 997.41 998.51 998.79 999.16 1000.17 1001.02 1001.72 1002.78 1004.09 1005.02 1005.82 1006.29 1006.70 1007.38 1007.98 1008.48 1008.98 1009.59 1010.19 1010.52 1010.81 1011.28 1011.66 1012.16 1012.52 1012.97 1013.31 1013.58 1013.83 1014.07 1014.18 1014.42 1014.66 1014.84 1014.96 1015.05 1015.18 1015.30
1005.36 1003.05 1003.52 1002.63 1002.23 1001.50 1000.51 999.33 998.54 998.07 997.91 997.48 998.21 999.25 999.48 1000.30 1001.14 1001.78 1002.23 1003.34 1004.07 1004.65 1005.40 1006.20 1006.99 1007.66 1008.31 1008.99 1009.87 1010.42 1010.80 1011.17 1011.52 1011.96 1012.24 1012.37 1012.60 1012.98 1013.21 1013.43 1013.66 1013.88 1013.97 1014.23 1014.40 1014.52 1014.65 1014.66 1014.85
1005.04 1003.42 1003.04 1002.41 1001.69 1001.04 1000.20 999.57 998.70 998.11 997.27 997.17 997.62 998.78 999.40 1000.13 1000.82 1001.53 1001.93 1002.70 1003.60 1004.16 1004.98 1005.98 1006.89 1007.60 1008.29 1008.98 1009.70 1010.03 1010.68 1011.05 1011.44 1011.79 1012.15 1012.39 1012.70 1012.66 1012.88 1013.03 1013.28 1013.68 1013.79 1014.08 1014.15 1014.25 1014.24 1014.38 1014.26
1003.93 1002.85 1002.60 1002.32 1001.52 1000.56 1000.33 999.50 999.04 998.26 997.22 996.97 997.46 998.23 999.31 999.83 1000.53 1001.01 1001.56 1002.03 1002.94 1003.90 1004.82 1005.81 1006.87 1007.47 1008.08 1008.72 1009.52 1009.87 1010.22 1010.48 1010.88 1011.46 1011.87 1012.06 1012.60 1012.81 1012.50 1012.86 1013.18 1013.40 1013.59 1013.70 1013.85 1014.02 1014.32 1014.26 1014.12
1002.69 1002.78 1002.45 1001.82 1000.99 1000.34 1000.27 999.48 999.34 998.10 997.71 997.46 997.76 998.36 999.18 999.53 1000.13 1000.87 1001.46 1001.98 1003.50 1003.74 1004.29 1004.91 1005.58 1007.13 1008.40 1008.78 1008.96 1009.35 1009.77 1009.95 1010.40 1010.69 1011.29 1011.84 1012.12 1012.44 1012.66 1012.81 1013.16 1013.08 1013.11 1013.15 1013.39 1013.59 1013.68 1013.62 1013.58
1003.51 1003.07 1001.63 1000.98 1000.26 999.53 999.94 999.58 998.27 998.14 997.75 998.09 998.09 998.54 999.29 999.64 1000.12 1000.66 1001.03 1001.64 1003.09 1004.38 1006.08 1006.48 1007.04 1006.24 1007.68 1009.14 1009.84 1010.04 1010.03 1009.96 1010.20 1010.36 1010.70 1011.31 1011.90 1012.30 1012.45 1012.84 1012.88 1012.59 1012.46 1012.41 1012.78 1012.82 1012.98 1013.19 1013.19
1002.95 1002.40 1001.79 999.78 999.59 998.97 999.56 998.40 998.17 997.92 998.04 998.46 998.66 998.84 999.56 999.96 1000.08 1000.71 1000.66 1001.43 1002.86 1003.97 1007.08 1005.40 1007.00 1007.27 1006.76 1008.21 1009.28 1009.78 1009.90 1010.19 1010.07 1010.15 1010.48 1011.23 1011.82 1011.95 1012.44 1012.80 1012.95 1012.76 1012.58 1012.60 1012.80 1013.06 1013.55 1013.62 1013.59
1002.80 1001.66 1000.51 999.45 998.69 998.70 998.24 998.08 998.22 997.93 998.30 998.72 999.35 999.29 999.64 1000.08 1000.38 1000.38 1000.82 1001.62 1003.01 1004.30 1006.39 1007.70 1006.66 1006.72 1007.35 1008.10 1009.54 1009.44 1009.64 1010.00 1009.78 1010.16 1010.46 1010.85 1011.53 1011.78 1012.26 1012.68 1012.79 1012.91 1012.88 1013.07 1013.09 1013.20 1013.60 1013.80 1013.73
1002.19 1000.50 999.17 998.26 997.66 997.64 997.52 997.67 998.11 998.28 998.45 998.85 999.44 999.66 999.86 1000.23 1000.62 1000.31 1000.51 1002.39 1003.44 1004.04 1005.37 1005.97 1006.50 1006.86 1007.59 1009.10 1008.96 1009.37 1009.66 1010.03 1009.52 1009.90 1010.36 1010.82 1011.48 1011.46 1012.24 1012.57 1012.54 1012.93 1013.28 1013.30 1013.23 1013.34 1013.53 1013.86 1013.88
1002.11 1000.66 999.41 998.40 998.17 997.43 997.05 997.90 997.94 998.14 998.45 998.75 999.25 999.78 999.97 1000.34 1000.54 1000.06 1000.66 1002.51 1003.23 1004.05 1005.21 1005.63 1006.42 1007.43 1008.26 1008.52 1008.21 1008.79 1009.52 1010.00 1010.22 1010.22 1010.20 1010.94 1011.36 1011.48 1012.09 1013.06 1012.87 1013.06 1013.29 1013.35 1013.40 1013.44 1013.66 1013.91 1013.79
1001.96 1000.49 998.82 998.31 997.32 997.20 997.01 997.40 997.83 997.93 997.95 998.34 998.84 999.39 999.89 1000.41 1000.48 999.92 1000.87 1002.27 1002.90 1004.26 1005.24 1006.41 1006.96 1006.99 1007.12 1006.73 1007.18 1008.42 1009.22 1009.86 1009.67 1010.36 1010.48 1010.82 1011.32 1011.87 1012.24 1012.88 1012.56 1013.45 1013.58 1013.45 1013.65 1013.82 1014.14 1014.28 1014.06
1000.91 1000.04 998.85 997.81 996.74 996.38 997.18 997.59 997.69 997.18 997.46 997.76 997.85 998.42 999.18 999.89 1000.10 999.94 1000.82 1001.98 1002.98 1003.86 1005.47 1006.69 1007.19 1008.58 1006.59 1006.95 1007.41 1008.05 1009.77 1009.98 1010.49 1010.49 1010.50 1011.02 1011.52 1012.26 1012.48 1012.62 1013.19 1013.83 1013.42 1014.00 1014.09 1014.30 1014.59 1014.76 1014.56
1000.63 999.68 998.94 997.65 997.06 996.69 996.51 997.05 997.03 997.00 996.94 997.23 997.50 997.92 998.62 999.17 999.50 999.78 1000.70 1002.09 1002.30 1003.10 1004.11 1005.46 1006.22 1006.61 1008.02 1007.17 1007.51 1006.94 1008.73 1010.10 1010.44 1010.52 1011.18 1011.50 1011.97 1012.43 1012.82 1013.25 1013.52 1013.92 1014.08 1014.37 1014.48 1014.50 1014.70 1014.86 1015.10
1001.32 999.54 998.72 998.10 997.93 997.22 996.70 997.51 996.66 996.60 996.94 996.55 996.79 997.42 998.10 998.68 999.11 999.72 1000.59 1001.39 1002.12 1002.50 1004.07 1005.39 1006.06 1006.38 1006.63 1007.32 1007.71 1008.39 1009.53 1009.88 1010.13 1010.70 1011.79 1012.40 1012.58 1012.96 1013.22 1013.39 1013.99 1014.32 1014.54 1014.90 1014.84 1014.99 1015.08 1015.10 1015.36
1000.66 1000.11 999.13 998.76 998.72 998.12 997.54 996.70 996.20 995.81 995.06 995.76 996.51 997.00 997.72 998.37 998.84 999.53 1000.13 1000.88 1002.26 1003.74 1004.95 1005.63 1006.24 1006.90 1007.30 1007.83 1008.10 1008.37 1009.11 1009.55 1010.58 1011.46 1012.18 1012.71 1013.52 1013.89 1013.90 1014.22 1014.43 1014.78 1015.11 1015.37 1015.30 1015.46 1015.59 1015.74 1015.82
1000.11 1000.16 999.93 999.50 999.16 999.62 998.23 997.01 995.38 994.84 995.01 995.69 996.22 996.73 997.36 998.10 998.92 999.66 1000.18 1001.14 1002.96 1004.34 1005.94 1007.74 1007.60 1007.50 1007.84 1008.19 1008.56 1008.97 1009.34 1010.08 1010.92 1011.91 1012.45 1013.65 1014.02 1014.38 1014.76 1014.94 1014.99 1015.20 1015.57 1015.64 1015.70 1015.94 1015.96 1015.98 1016.00
999.90 1000.26 1001.29 999.90 999.67 999.16 998.84 997.13 994.51 994.34 994.45 995.18 995.69 996.57 997.50 998.21 998.86 999.84 1000.67 1001.83 1003.52 1005.35 1006.62 1008.22 1007.96 1008.32 1008.73 1008.88 1009.60 1009.98 1010.58 1011.09 1011.63 1011.82 1012.78 1013.72 1014.42 1014.79 1015.05 1015.41 1015.44 1015.39 1015.57 1015.78 1016.03 1016.22 1016.22 1016.19 1016.03
1000.17 999.97 1001.10 1001.12 999.34 999.70 998.44 996.66 994.94 994.37 994.12 994.94 995.54 996.54 997.90 998.53 999.35 1000.33 1001.55 1002.70 1004.11 1005.73 1007.02 1007.58 1008.35 1009.23 1009.52 1010.09 1010.30 1010.95 1011.38 1011.58 1012.48 1012.86 1013.40 1014.07 1014.64 1015.07 1015.51 1015.62 1015.68 1015.74 1015.80 1016.12 1016.22 1016.34 1016.40 1016.32 1016.08
999.71 999.41 1001.14 1001.02 1000.21 999.36 997.86 997.30 995.97 994.81 994.77 995.33 996.20 997.46 998.76 999.73 1000.70 1001.61 1002.57 1003.52 1004.87 1006.55 1007.66 1008.36 1009.35 1010.17 1010.82 1010.98 1011.26 1011.90 1012.12 1012.50 1013.11 1013.48 1014.12 1014.56 1014.94 1015.46 1015.70 1015.89 1016.08 1016.15 1016.32 1016.34 1016.35 1016.44 1016.54 1016.46 1016.24
999.82 1000.15 1000.22 1000.22 1000.07 998.82 998.46 997.70 996.32 995.98 995.21 996.12 997.23 998.64 999.89 1000.96 1001.93 1002.85 1003.95 1004.86 1005.94 1007.12 1007.67 1008.66 1009.40 1010.51 1011.05 1011.44 1011.94 1012.52 1013.07 1013.56 1013.94 1014.30 1014.68 1015.22 1015.62 1015.89 1016.14 1016.20 1016.36 1016.43 1016.64 1016.94 1016.92 1016.91 1016.92 1016.75 1016.50
998.90 999.33 999.79 1000.56 1000.06 998.94 998.34 999.66 998.91 997.14 997.25 997.27 998.66 999.93 1000.95 1002.01 1003.20 1004.18 1004.92 1005.81 1006.95 1007.74 1008.26 1009.11 1010.25 1011.19 1012.00 1012.47 1012.97 1013.54 1014.08 1014.37 1014.70 1015.22 1015.67 1015.84 1016.03 1016.22 1016.38 1016.55 1016.90 1017.30 1017.62 1017.68 1017.64 1017.58 1017.36 1017.06 1016.84
Wind_Speed
3 6 2 2 2 2 7 12 13 21 16 10 7 14 15 15 16 10 4 19 21 13 11 14 18 19 18 19 19 18 17 17 18 18 17 15 14 14 13 12 12 12 12 10 10 9 9 9 9
3 5 2 4 5 4 9 14 21 22 13 5 4 20 22 15 9 8 16 20 21 15 10 11 18 18 19 18 18 18 17 17 18 17 17 15 14 13 11 11 11 11 11 9 9 9 8 8 8
2 4 2 5 4 11 10 9 20 21 10 6 2 10 7 19 12 6 21 22 20 14 11 13 18 19 19 19 19 18 17 17 18 18 17 15 14 13 11 10 10 10 11 9 8 8 8 7 7
3 2 5 3 10 12 20 14 25 15 17 8 5 9 6 8 11 14 23 21 19 13 12 15 17 18 19 19 19 19 18 18 17 17 16 14 13 13 11 10 9 10 10 10 9 8 7 7 7
2 3 4 5 10 12 14 23 27 19 19 8 2 5 7 11 22 28 25 20 19 14 13 12 17 18 18 19 18 18 18 17 17 17 16 15 13 12 11 10 9 10 10 10 9 8 8 7 7
3 4 3 13 10 17 18 21 21 14 19 14 5 7 6 14 16 21 21 21 19 15 14 13 16 17 18 20 19 18 18 17 17 16 15 15 13 12 11 10 10 9 10 9 8 8 7 7 6
6 4 6 9 11 19 14 22 21 15 14 11 15 12 9 13 12 20 20 21 20 18 14 11 13 16 18 17 19 19 18 18 17 16 15 15 13 12 11 9 8 7 7 7 6 6 5 5 6
4 5 11 14 16 21 16 10 19 13 16 8 7 8 10 16 12 16 18 20 19 16 15 11 9 13 13 11 17 18 17 17 16 15 14 13 12 11 9 8 7 7 6 5 5 5 6 6 6
7 8 17 25 19 12 18 7 10 7 6 4 6 14 18 18 14 13 21 18 16 14 15 13 12 11 11 10 12 15 18 17 16 14 14 11 5 6 7 8 9 7 6 5 5 5 6 7 8
11 13 27 9 12 15 17 9 11 3 2 3 12 15 14 18 15 14 18 18 17 17 16 15 14 14 13 10 13 9 10 8 7 7 8 5 6 6 9 9 11 10 9 9 7 7 8 8 4
7 27 14 15 15 19 20 20 9 5 5 7 9 17 13 11 9 13 12 21 21 20 16 16 15 14 14 10 7 5 5 5 5 8 8 6 5 6 5 3 5 4 10 4 6 6 5 6 5
17 22 21 18 15 23 21 16 14 3 10 11 9 15 17 13 10 9 12 16 21 20 20 17 15 13 10 9 7 7 6 5 5 6 8 5 3 6 5 5 5 5 3 5 5 4 6 6 7
24 23 17 18 21 23 17 18 13 10 5 10 10 8 14 14 11 8 7 5 21 19 20 18 16 13 11 12 8 8 7 7 7 7 8 6 5 5 5 5 4 4 4 5 5 3 2 6 6
5 18 20 19 21 23 20 16 6 11 4 3 8 3 8 14 13 9 6 7 3 12 21 22 20 12 11 9 11 10 8 9 7 7 8 7 5 3 4 4 5 4 5 5 5 5 4 4 4
24 23 16 24 24 24 14 18 23 9 1 6 5 6 7 8 10 11 9 8 13 10 13 9 7 11 15 8 7 6 7 8 8 9 10 8 6 4 5 3 3 3 2 4 3 3 3 4 4
17 15 18 23 25 23 13 24 15 8 6 8 7 8 8 3 4 6 10 8 12 18 18 11 0 6 12 9 5 2 4 8 7 8 8 6 5 5 5 3 2 1 3 3 3 4 4 4 4
13 16 22 24 21 20 19 10 9 8 8 8 7 8 8 6 4 6 7 7 17 21 23 16 14 6 3 9 5 4 6 3 4 6 8 7 7 6 5 2 1 1 3 4 4 2 2 3 4
17 24 22 25 24 25 24 16 8 10 12 10 8 9 9 8 9 11 8 12 20 22 17 11 9 12 6 4 6 3 3 3 4 6 6 7 5 6 5 3 3 4 3 3 3 4 2 1 3
19 20 22 15 19 16 23 15 14 10 9 14 10 9 10 9 9 15 11 14 18 24 24 18 14 15 12 9 5 4 3 3 3 2 7 7 6 6 5 4 3 4 3 1 2 1 2 2 3
25 24 21 16 18 19 12 16 9 13 12 14 15 12 11 9 10 16 8 13 17 21 19 16 11 11 8 5 5 4 3 2 5 2 6 6 6 7 6 4 5 5 3 5 5 4 3 2 4
26 23 19 16 16 16 11 7 17 19 16 8 19 16 11 17 12 9 7 15 19 18 18 17 13 5 9 13 5 4 3 3 3 2 5 5 7 7 6 6 6 3 4 4 5 5 5 3 3
23 21 21 16 13 14 17 13 14 19 15 14 10 18 15 12 10 8 8 15 17 15 13 17 21 28 18 8 7 6 6 6 3 4 5 6 7 7 7 7 5 6 4 6 4 4 3 3 3
20 19 17 19 13 1 15 10 16 13 12 15 14 15 17 12 12 10 12 18 16 18 12 6 6 6 7 6 7 7 6 3 5 7 10 7 7 8 8 9 7 7 6 5 7 6 6 4 3
18 19 18 15 9 7 18 10 7 15 24 14 8 13 17 13 11 9 13 18 15 13 10 10 8 5 5 6 7 8 10 10 10 8 6 6 6 6 8 9 7 7 6 6 5 6 6 5 5
21 14 8 11 8 7 11 8 8 15 14 12 11 11 12 13 11 10 10 13 15 16 16 6 4 7 7 5 6 8 8 9 11 10 7 7 5 5 6 6 6 5 5 6 6 5 4 3 3
18 13 3 5 9 12 11 8 14 10 15 12 14 12 10 12 9 12 15 14 18 18 20 16 10 9 10 11 10 13 12 8 7 9 9 8 6 5 6 6 5 6 5 5 5 4 4 3 3
6 12 18 6 5 5 6 4 2 15 12 15 18 17 10 9 10 13 18 16 19 19 17 16 15 14 14 12 15 14 10 12 10 12 10 6 6 5 6 5 4 4 3 5 5 3 4 4 3
8 6 11 4 5 6 5 8 5 5 5 16 19 11 13 20 22 19 20 20 19 19 18 18 17 13 11 13 13 12 12 11 11 11 10 8 7 6 6 5 4 3 4 3 2 3 5 5 4
4 2 5 3 4 6 7 5 6 5 13 19 20 23 22 21 22 21 20 20 19 17 18 17 19 16 14 14 13 13 11 11 10 9 7 7 6 6 5 5 4 4 6 8 8 6 7 7 6
6 8 9 7 7 4 4 2 10 16 17 23 23 25 24 23 22 21 21 21 18 17 16 17 16 16 12 11 11 11 10 9 9 8 7 6 6 6 6 5 9 10 9 8 8 7 7 6 6
Wind_Direction
251 253 251 307 59 172 240 245 248 280 285 277 191 116 95 136 151 186 229 132 128 134 140 136 131 129 126 123 122 121 122 120 117 114 109 106 102 101 103 103 104 106 108 107 103 101 97 91 86
264 244 255 266 151 222 254 238 253 257 256 278 75 97 88 80 86 108 113 127 128 132 138 135 132 129 128 125 125 125 127 125 120 118 115 115 111 107 105 106 106 108 109 109 105 103 100 95 90
258 253 132 173 209 212 249 219 254 260 268 197 109 94 92 128 106 124 126 127 119 129 131 137 133 131 132 130 131 130 129 127 124 124 124 124 123 118 113 111 113 116 115 111 112 113 113 107 100
241 303 290 180 229 227 248 264 270 297 297 23 47 80 64 137 120 128 127 121 119 129 126 133 133 135 135 135 136 135 133 132 130 129 129 129 129 124 123 124 124 123 122 125 127 126 127 126 120
258 275 226 228 246 255 253 246 255 271 275 262 341 77 79 86 122 129 132 131 133 121 126 129 132 135 136 136 138 138 136 135 135 136 137 138 135 128 128 130 137 139 136 136 138 143 148 148 151
265 178 234 226 243 237 252 257 265 258 260 263 125 117 128 127 129 135 135 134 127 128 126 132 133 135 140 140 140 141 139 139 137 139 140 141 142 140 144 148 152 151 150 152 154 163 172 171 179
220 275 235 250 237 243 238 244 253 253 269 285 185 132 148 136 147 137 138 130 127 126 124 127 140 148 149 148 146 145 144 143 143 145 146 147 148 150 152 156 155 156 157 159 168 184 197 203 215
225 240 257 241 240 257 257 253 247 234 255 258 161 138 156 149 143 132 118 123 124 128 129 134 138 149 153 152 150 147 147 145 145 145 147 148 151 151 150 157 160 165 172 173 199 211 227 239 248
240 231 237 238 232 244 265 260 280 266 199 42 38 104 129 136 131 132 122 127 127 135 138 144 149 151 152 145 152 145 145 143 143 145 147 143 146 152 160 171 177 177 183 195 217 236 251 255 256
207 219 234 235 242 257 272 274 262 260 114 79 90 110 115 132 149 149 143 145 144 148 153 156 159 161 155 154 153 144 148 144 144 144 152 155 164 170 174 189 184 184 192 200 212 228 237 248 241
247 234 241 238 251 264 273 282 283 189 209 167 148 140 135 138 140 159 162 155 156 159 159 164 162 164 159 139 149 149 146 149 154 160 168 180 177 184 190 177 191 183 200 194 207 221 223 219 217
247 247 245 251 238 249 257 276 292 261 196 160 173 148 147 148 151 166 172 156 161 165 161 162 162 162 149 143 158 155 157 160 165 170 179 189 185 192 181 183 180 188 187 208 222 212 224 230 230
234 238 245 249 259 263 285 284 276 294 193 157 176 168 161 153 157 173 181 178 162 165 162 154 158 171 150 150 158 160 162 163 172 165 187 179 196 200 190 179 170 186 186 202 212 221 219 235 237
270 229 239 247 245 253 255 275 287 266 314 241 129 127 181 154 162 170 188 172 160 167 156 162 164 144 152 160 167 167 171 174 171 169 185 191 190 197 200 172 182 188 197 210 199 216 208 203 205
248 263 244 230 240 246 234 260 252 244 213 303 183 151 87 147 150 164 196 194 135 92 6 120 131 137 151 158 183 174 185 173 176 178 177 184 182 188 162 111 41 330 310 36 115 43 22 8 342
251 246 245 238 229 236 191 239 240 209 183 256 227 162 136 151 162 181 194 208 131 129 119 85 170 182 135 156 169 195 175 188 176 173 168 168 181 126 75 76 16 324 74 84 62 46 14 356 359
255 230 232 239 230 219 215 218 209 191 199 230 204 167 151 173 264 263 232 164 129 131 143 169 187 85 97 117 124 126 112 109 108 150 159 161 157 136 126 121 319 334 36 37 61 33 67 345 327
226 216 230 224 223 210 225 228 184 228 191 203 198 169 164 195 221 250 246 125 128 138 146 160 158 123 222 204 138 112 94 83 129 140 136 134 152 145 151 187 101 94 61 21 24 39 16 309 295
244 246 236 250 220 230 215 212 196 228 204 198 185 179 177 193 229 230 229 135 143 145 148 156 169 173 177 172 154 136 153 143 57 55 123 139 158 160 146 110 95 73 63 310 359 8 327 326 291
245 244 235 227 223 224 205 205 199 209 232 196 192 185 181 199 228 224 180 151 149 144 154 151 178 191 199 171 150 136 122 124 114 104 121 145 108 103 106 125 91 79 60 30 26 25 2 330 22
238 238 243 230 206 230 206 217 201 209 219 211 197 189 176 190 212 225 169 141 144 151 146 149 170 197 254 205 132 102 108 81 87 123 89 77 91 94 103 80 79 57 62 69 54 45 43 5 336
249 238 244 248 216 214 203 218 219 202 206 215 202 190 183 181 204 205 141 133 137 145 144 152 167 160 211 165 152 178 132 162 161 114 104 79 79 81 78 88 71 57 59 57 35 34 49 46 349
267 242 236 251 264 218 200 194 206 168 208 212 208 180 181 180 189 190 148 144 153 155 159 152 155 147 135 151 141 147 152 130 104 108 93 83 64 71 70 71 68 57 52 46 45 27 24 20 26
244 269 243 246 246 259 255 170 207 185 206 202 181 173 170 170 178 155 147 149 149 129 128 156 153 151 130 151 161 145 138 126 120 114 113 90 84 70 61 58 61 53 53 44 34 20 16 36 36
229 232 228 215 215 214 266 262 197 205 198 189 169 158 158 158 160 147 130 127 120 117 95 349 162 136 142 125 125 126 122 109 129 137 124 117 94 73 57 62 60 59 58 46 34 21 13 30 36
225 224 216 137 156 209 219 232 204 209 187 186 158 156 149 156 155 143 130 112 108 125 140 159 118 84 81 66 64 83 82 84 66 93 101 100 99 94 81 73 66 64 64 60 31 13 353 34 6
218 213 197 310 177 127 194 279 187 178 180 173 159 154 149 149 146 107 105 94 93 97 95 97 88 79 85 86 84 81 79 84 80 81 87 92 99 95 86 85 70 64 58 78 40 11 336 351 329
221 179 191 190 184 156 160 203 208 155 216 163 147 126 112 91 93 94 93 92 88 93 103 97 96 91 92 95 85 87 83 78 78 80 78 75 70 73 71 61 52 53 68 88 58 332 336 344 332
163 179 247 21 263 158 149 222 126 80 141 122 110 104 100 100 97 97 97 96 98 99 99 95 88 87 78 76 79 81 79 77 75 76 72 73 73 76 72 57 39 41 46 28 37 25 20 17 4
193 215 184 178 261 291 137 281 330 102 91 101 106 102 104 102 103 101 102 102 101 98 93 91 91 88 80 77 77 74 76 73 68 67 77 74 75 64 67 41 50 68 47 37 31 15 3 358 351